OBJECT D, 62380

Orbit data source: Space-Track

You're viewing an Uncataloged Satellite

Recently launched and/or uncataloged satellites may have evolving metadata. Metadata may include but not limited to: Owner, Maufacturer, Bus, Motor, and Mission.

OBJECT D, 62380 is a satellite in LEO that was launched on Sat, 21 Dec 2024 UTC via an FALCON 9 launch vehicle from the Air Force Western Test Range (AFWTR). Unknown objects in Earth's orbit typically refer to objects detected orbiting the Earth but have not yet been identified or cataloged. These objects could be anything from previously untracked satellites, spent rocket stages, debris from satellite collisions, or even natural meteoroids temporarily captured by Earth's gravity.

Loading next visibility...
Identifier
62380, 2024-247D
Orbit
LEO
Country
Flag of TBDTBD
Related business
None
Manufacturer
Unknown
Mission
Operational Commercial Technology
Bus & Motor
Unknown
Mass
Unknown
Launch date (UTC)
2024-12-21 (1 year ago)
Launch vehicle
FALCON 9
Launch site
Air Force Western Test Range (AFWTR)
Object type
Unknown
Shape & HBR
Box + 2 Pan, 1.0 m
Radar Cross Section
0.183 m², Medium (>0.1 m² and < 1m²)

Expand to show TLE details & history
Last TLE update: 14 hours ago

TLE from 14 hours ago
0 OBJECT D
1 62380U 24247D   26093.99671378  .00017583  00000-0  60869-3 0  9994
2 62380  44.9974 336.2204 0004043 192.8324 167.2457 15.29680982 71637
Epoch: 2026-04-03T23:55Z
TLE epoch observation values (Epoch: 2026-04-03T23:55:16.070Z)
Latitude
-0.00006°
Longitude
145.08056°
Altitude
479.466 km
Speed
7.626 km/s
True Right ascension
22h 24m 52s
True Declination
0° 00' 00"
Sunlit
Object was in daylight at epoch
Visualization orbit readout
Latitude
Unknown
Longitude
Unknown
Altitude
Unknown
Speed
Unknown
Apparent Right ascension
Unknown
Apparent Declination
Unknown
Sunlit
N/A
Visualization observer readout
Local Sidereal Time
20:15:34
Azimuth
Unknown
Elevation
Unknown
Doppler factor
Unknown
Orbital elements
Apogee altitude
481.148 km
Perigee altitude
475.604 km
Semi-major axis
6,856.513 km
Eccentricity
0.0004
Inclination
44.9974°
RAAN
336.2204°
Arg. of periapsis
192.8324°
True anomaly
167.25592°
Mean anomaly
167.2457°
Eccentric anomaly
167.25081°
Mean motion
3.82286 °/min
Orbital period
94.17 mins
BSTAR
0.00060869
Loading maneuver chart data...
Computing Atmospheric mass density...
Loading historical data...
Loading historical data...
Loading historical data...
Loading historical data...
Loading historical data...
Loading historical data...
Loading historical data...

Documentation

Showing up to 5 results
|